Location: Unspecified
(49.2170°N, 0.0000°E)
Time: 22:25:31
(UTC+00:00)

A-11 Canister half - Pass Details

Date: 19 June 2019
Orbit: 1526 x 1683 km, 47.3° (Epoch: 17 July)

Event Time Altitude Azimuth Distance (km) Brightness Sun altitude
Rises 07:57:05 0° 264° (W) 4,700 11.1 36.2°
Reaches altitude 10° 08:00:09 10° 263° (W) 3,707 10.6 36.7°
Maximum altitude 08:09:28 81° 178° (S) 1,547 9.8 38.2°
Drops below altitude 10° 08:18:49 10° 94° (E) 3,712 12.2 39.7°
Sets 08:21:52 0° 93° (E) 4,706 12.4 40.2°
